| time (UTC) | temp C | wind direction | speed KPH | gust KPH | rain 1hr cm | rain 24hr cm | rain mn cm | humidity % | barometer mb |
| 20260905124527 | 21 | 166 | 1.6 | 4.8 | 0.00 | 0.00 | 0.00 | 72 | 1014.2 |
| 20260905123521 | 21 | 171 | 1.6 | 3.2 | 0.00 | 0.00 | 0.00 | 73 | 1014.1 |
| 20260905122516 | 21 | 171 | 1.6 | 3.2 | 0.00 | 0.00 | 0.00 | 73 | 1014.1 |
| 20260905121526 | 21 | 172 | 0.0 | 1.6 | 0.00 | 0.00 | 0.00 | 73 | 1014.1 |
| 20260905120521 | 21 | 171 | 0.0 | 1.6 | 0.00 | 0.00 | 0.00 | 73 | 1014.0 |
| 20260905115516 | 21 | 0.0 | 0.0 | 0.00 | 0.00 | 0.00 | 73 | 1013.9 | |
| 20260905114526 | 21 | 0.0 | 0.0 | 0.00 | 0.00 | 0.00 | 72 | 1014.1 | |
| 20260905113521 | 21 | 171 | 0.0 | 1.6 | 0.00 | 0.00 | 0.00 | 72 | 1014.0 |
| 20260905112516 | 21 | 171 | 0.0 | 1.6 | 0.00 | 0.00 | 0.00 | 72 | 1013.9 |
| 20260905111526 | 21 | 171 | 0.0 | 1.6 | 0.00 | 0.00 | 0.00 | 72 | 1013.9 |
| 20260905110521 | 21 | 171 | 0.0 | 1.6 | 0.00 | 0.00 | 0.00 | 72 | 1013.9 |
| 20260905105516 | 21 | 0.0 | 0.0 | 0.00 | 0.00 | 0.00 | 72 | 1014.0 | |
| 20260905104526 | 21 | 171 | 0.0 | 1.6 | 0.00 | 0.00 | 0.00 | 70 | 1013.8 |
| 20260905103541 | 21 | 171 | 1.6 | 6.4 | 0.00 | 0.00 | 0.00 | 71 | 1013.7 |
| 20260905102516 | 21 | 159 | 1.6 | 3.2 | 0.00 | 0.00 | 0.00 | 70 | 1013.8 |
| 20260905101526 | 22 | 165 | 1.6 | 4.8 | 0.00 | 0.00 | 0.00 | 70 | 1013.8 |
| 20260905100521 | 22 | 165 | 0.0 | 3.2 | 0.00 | 0.00 | 0.00 | 69 | 1013.8 |
| 20260905095516 | 22 | 167 | 1.6 | 6.4 | 0.00 | 0.00 | 0.00 | 69 | 1013.8 |
| 20260905094526 | 22 | 172 | 1.6 | 4.8 | 0.00 | 0.00 | 0.00 | 69 | 1013.7 |
| 20260905093521 | 22 | 181 | 0.0 | 3.2 | 0.00 | 0.00 | 0.00 | 69 | 1013.7 |
| 20260905092516 | 22 | 167 | 1.6 | 4.8 | 0.00 | 0.00 | 0.00 | 68 | 1013.7 |
| 20260905091546 | 22 | 177 | 0.0 | 3.2 | 0.00 | 0.00 | 0.00 | 68 | 1013.6 |
| 20260905090521 | 22 | 0.0 | 0.0 | 0.00 | 0.00 | 0.00 | 68 | 1013.6 | |
| 20260905085536 | 22 | 0.0 | 0.0 | 0.00 | 0.00 | 0.00 | 68 | 1013.6 | |
| 20260905084526 | 22 | 172 | 0.0 | 3.2 | 0.00 | 0.00 | 0.00 | 67 | 1013.5 |
| 20260905083520 | 22 | 161 | 0.0 | 3.2 | 0.00 | 0.00 | 0.00 | 67 | 1013.4 |
| 20260905082515 | 23 | 186 | 0.0 | 3.2 | 0.00 | 0.00 | 0.00 | 66 | 1013.3 |
| 20260905081525 | 23 | 161 | 0.0 | 1.6 | 0.00 | 0.00 | 0.00 | 65 | 1013.4 |
| 20260905080520 | 23 | 171 | 1.6 | 4.8 | 0.00 | 0.00 | 0.00 | 65 | 1013.4 |
| 20260905075529 | 23 | 168 | 1.6 | 6.4 | 0.00 | 0.00 | 0.00 | 64 | 1013.4 |
| 20260905074545 | 23 | 175 | 1.6 | 4.8 | 0.00 | 0.00 | 0.00 | 64 | 1013.2 |
| 20260905073531 | 23 | 150 | 1.6 | 4.8 | 0.00 | 0.00 | 0.00 | 64 | 1013.3 |
| 20260905072528 | 23 | 173 | 3.2 | 6.4 | 0.00 | 0.00 | 0.00 | 63 | 1013.4 |
| 20260905071529 | 23 | 160 | 1.6 | 4.8 | 0.00 | 0.00 | 0.00 | 63 | 1013.6 |
| 20260905070525 | 23 | 160 | 1.6 | 6.4 | 0.00 | 0.00 | 0.00 | 62 | 1013.6 |
| 20260905065523 | 24 | 167 | 3.2 | 6.4 | 0.00 | 0.00 | 0.00 | 62 | 1013.8 |
| 20260905064547 | 24 | 178 | 1.6 | 4.8 | 0.00 | 0.00 | 0.00 | 61 | 1013.8 |
| 20260905063533 | 24 | 171 | 3.2 | 6.4 | 0.00 | 0.00 | 0.00 | 61 | 1013.8 |
| 20260905062540 | 24 | 174 | 3.2 | 6.4 | 0.00 | 0.00 | 0.00 | 60 | 1013.9 |
| 20260905061531 | 25 | 171 | 3.2 | 9.7 | 0.00 | 0.00 | 0.00 | 60 | 1013.9 |
| 20260905060554 | 25 | 174 | 3.2 | 9.7 | 0.00 | 0.00 | 0.00 | 59 | 1013.8 |
| 20260905055534 | 25 | 168 | 1.6 | 4.8 | 0.00 | 0.00 | 0.00 | 59 | 1013.8 |
| 20260905054517 | 25 | 168 | 3.2 | 9.7 | 0.00 | 0.00 | 0.00 | 58 | 1013.7 |
| 20260905053531 | 25 | 167 | 3.2 | 6.4 | 0.00 | 0.00 | 0.00 | 58 | 1013.7 |
| 20260905052527 | 25 | 158 | 1.6 | 6.4 | 0.00 | 0.00 | 0.00 | 57 | 1013.6 |
| 20260905051523 | 25 | 172 | 1.6 | 3.2 | 0.00 | 0.00 | 0.00 | 56 | 1013.5 |
| 20260905050552 | 25 | 165 | 3.2 | 9.7 | 0.00 | 0.00 | 0.00 | 56 | 1013.5 |
| 20260905045530 | 26 | 167 | 4.8 | 11.3 | 0.00 | 0.00 | 0.00 | 55 | 1013.4 |
| 20260905044530 | 26 | 161 | 3.2 | 9.7 | 0.00 | 0.00 | 0.00 | 54 | 1013.5 |
| 20260905043543 | 26 | 170 | 3.2 | 6.4 | 0.00 | 0.00 | 0.00 | 53 | 1013.5 |
| 20260905042519 | 26 | 170 | 6.4 | 11.3 | 0.00 | 0.00 | 0.00 | 53 | 1013.5 |
| 20260905041521 | 26 | 155 | 4.8 | 12.9 | 0.00 | 0.00 | 0.00 | 52 | 1013.4 |
| 20260905040539 | 26 | 171 | 6.4 | 14.5 | 0.00 | 0.00 | 0.00 | 52 | 1013.5 |
| 20260905035530 | 27 | 164 | 4.8 | 16.1 | 0.00 | 0.00 | 0.00 | 51 | 1013.6 |
| 20260905034524 | 27 | 157 | 3.2 | 11.3 | 0.00 | 0.00 | 0.00 | 50 | 1013.5 |
| 20260905033520 | 27 | 172 | 4.8 | 12.9 | 0.00 | 0.00 | 0.00 | 50 | 1013.6 |
| 20260905032517 | 27 | 161 | 4.8 | 12.9 | 0.00 | 0.00 | 0.00 | 49 | 1013.5 |
| 20260905031530 | 27 | 152 | 6.4 | 20.9 | 0.00 | 0.00 | 0.00 | 49 | 1013.5 |
| 20260905030517 | 27 | 169 | 4.8 | 11.3 | 0.00 | 0.00 | 0.00 | 48 | 1013.4 |
| 20260905025528 | 28 | 149 | 4.8 | 11.3 | 0.00 | 0.00 | 0.00 | 47 | 1013.2 |
| 20260905024544 | 28 | 157 | 4.8 | 17.7 | 0.00 | 0.00 | 0.00 | 47 | 1013.1 |
| 20260905023519 | 28 | 140 | 3.2 | 11.3 | 0.00 | 0.00 | 0.00 | 46 | 1013.0 |
| 20260905022530 | 28 | 125 | 4.8 | 14.5 | 0.00 | 0.00 | 0.00 | 45 | 1012.7 |
| 20260905021525 | 28 | 145 | 6.4 | 12.9 | 0.00 | 0.00 | 0.00 | 43 | 1012.5 |
| 20260905020520 | 28 | 135 | 4.8 | 9.7 | 0.00 | 0.00 | 0.00 | 41 | 1012.3 |
| 20260905015516 | 29 | 132 | 4.8 | 12.9 | 0.00 | 0.00 | 0.00 | 40 | 1012.2 |
| 20260905014526 | 29 | 135 | 4.8 | 11.3 | 0.00 | 0.00 | 0.00 | 39 | 1012.1 |
| 20260905013522 | 30 | 139 | 3.2 | 6.4 | 0.00 | 0.00 | 0.00 | 38 | 1011.8 |
| 20260905012517 | 30 | 129 | 3.2 | 9.7 | 0.00 | 0.00 | 0.00 | 38 | 1011.8 |
| 20260905011528 | 30 | 148 | 4.8 | 9.7 | 0.00 | 0.00 | 0.00 | 38 | 1011.7 |
| 20260905010523 | 30 | 144 | 4.8 | 12.9 | 0.00 | 0.00 | 0.00 | 39 | 1011.7 |
| 20260905005518 | 30 | 158 | 4.8 | 12.9 | 0.00 | 0.00 | 0.00 | 38 | 1011.5 |
| 20260905004529 | 31 | 143 | 4.8 | 17.7 | 0.00 | 0.00 | 0.00 | 38 | 1011.5 |
| 20260905003524 | 31 | 151 | 6.4 | 16.1 | 0.00 | 0.00 | 0.00 | 37 | 1011.2 |
| 20260905002540 | 32 | 144 | 4.8 | 11.3 | 0.00 | 0.00 | 0.00 | 37 | 1011.2 |
| 20260905001535 | 32 | 137 | 4.8 | 11.3 | 0.00 | 0.00 | 0.00 | 36 | 1011.2 |
| 20260905000526 | 32 | 139 | 4.8 | 14.5 | 0.00 | 0.00 | 0.00 | 35 | 1011.0 |
| 20260904235521 | 32 | 143 | 6.4 | 12.9 | 0.00 | 0.00 | 0.00 | 35 | 1011.1 |
| 20260904234517 | 33 | 140 | 8.0 | 22.5 | 0.00 | 0.00 | 0.00 | 34 | 1011.0 |
| 20260904233527 | 33 | 124 | 6.4 | 14.5 | 0.00 | 0.00 | 0.00 | 34 | 1011.0 |
| 20260904232523 | 33 | 143 | 4.8 | 12.9 | 0.00 | 0.00 | 0.00 | 33 | 1011.0 |
| 20260904231518 | 33 | 138 | 8.0 | 17.7 | 0.00 | 0.00 | 0.00 | 33 | 1011.0 |
| 20260904230549 | 34 | 128 | 8.0 | 17.7 | 0.00 | 0.00 | 0.00 | 32 | 1010.9 |
| 20260904225525 | 35 | 119 | 9.7 | 16.1 | 0.00 | 0.00 | 0.00 | 31 | 1011.0 |
| 20260904224520 | 35 | 144 | 3.2 | 16.1 | 0.00 | 0.00 | 0.00 | 30 | 1011.0 |
| 20260904223515 | 35 | 144 | 4.8 | 16.1 | 0.00 | 0.00 | 0.00 | 30 | 1011.1 |
| 20260904222526 | 34 | 159 | 4.8 | 14.5 | 0.00 | 0.00 | 0.00 | 31 | 1011.2 |
| 20260904221521 | 34 | 161 | 3.2 | 9.7 | 0.00 | 0.00 | 0.00 | 31 | 1011.1 |
| 20260904220517 | 35 | 143 | 4.8 | 14.5 | 0.00 | 0.00 | 0.00 | 29 | 1011.2 |
| 20260904215528 | 36 | 158 | 4.8 | 12.9 | 0.00 | 0.00 | 0.00 | 28 | 1011.2 |
| 20260904214523 | 36 | 133 | 6.4 | 14.5 | 0.00 | 0.00 | 0.00 | 28 | 1011.4 |
| 20260904213519 | 36 | 145 | 4.8 | 6.4 | 0.00 | 0.00 | 0.00 | 27 | 1011.5 |
| 20260904212529 | 36 | 110 | 9.7 | 17.7 | 0.00 | 0.00 | 0.00 | 27 | 1011.6 |
| 20260904211525 | 35 | 156 | 6.4 | 17.7 | 0.00 | 0.00 | 0.00 | 29 | 1011.7 |
| 20260904210520 | 36 | 155 | 4.8 | 14.5 | 0.00 | 0.00 | 0.00 | 29 | 1011.8 |
| 20260904205516 | 36 | 130 | 4.8 | 16.1 | 0.00 | 0.00 | 0.00 | 29 | 1012.0 |
| 20260904204527 | 35 | 141 | 8.0 | 17.7 | 0.00 | 0.00 | 0.00 | 29 | 1012.1 |
| 20260904203522 | 36 | 145 | 8.0 | 16.1 | 0.00 | 0.00 | 0.00 | 28 | 1012.2 |
| 20260904202518 | 36 | 122 | 6.4 | 17.7 | 0.00 | 0.00 | 0.00 | 27 | 1012.3 |
| 20260904201608 | 36 | 157 | 4.8 | 11.3 | 0.00 | 0.00 | 0.00 | 29 | 1012.3 |
| 20260904200544 | 35 | 114 | 4.8 | 12.9 | 0.00 | 0.00 | 0.00 | 31 | 1012.5 |
| 20260904195539 | 34 | 172 | 6.4 | 20.9 | 0.00 | 0.00 | 0.00 | 32 | 1012.8 |
| 20260904194549 | 35 | 155 | 4.8 | 14.5 | 0.00 | 0.00 | 0.00 | 31 | 1013.0 |
| 20260904193525 | 35 | 144 | 3.2 | 9.7 | 0.00 | 0.00 | 0.00 | 31 | 1013.1 |
| 20260904192521 | 35 | 138 | 4.8 | 14.5 | 0.00 | 0.00 | 0.00 | 32 | 1013.3 |
| 20260904191516 | 35 | 173 | 3.2 | 9.7 | 0.00 | 0.00 | 0.00 | 31 | 1013.2 |
| 20260904190527 | 35 | 168 | 8.0 | 14.5 | 0.00 | 0.00 | 0.00 | 31 | 1013.4 |
| 20260904185522 | 35 | 156 | 4.8 | 17.7 | 0.00 | 0.00 | 0.00 | 32 | 1013.5 |
| 20260904184518 | 34 | 123 | 4.8 | 12.9 | 0.00 | 0.00 | 0.00 | 33 | 1013.7 |
| 20260904183528 | 34 | 151 | 6.4 | 14.5 | 0.00 | 0.00 | 0.00 | 33 | 1013.8 |
| 20260904182524 | 34 | 151 | 4.8 | 14.5 | 0.00 | 0.00 | 0.00 | 35 | 1014.0 |
| 20260904181519 | 33 | 164 | 3.2 | 9.7 | 0.00 | 0.00 | 0.00 | 37 | 1014.1 |
| 20260904180530 | 33 | 188 | 4.8 | 16.1 | 0.00 | 0.00 | 0.00 | 39 | 1014.2 |
| 20260904175525 | 33 | 168 | 4.8 | 11.3 | 0.00 | 0.00 | 0.00 | 38 | 1014.4 |
| 20260904174521 | 33 | 161 | 3.2 | 11.3 | 0.00 | 0.00 | 0.00 | 37 | 1014.4 |
| 20260904173516 | 34 | 137 | 8.0 | 16.1 | 0.00 | 0.00 | 0.00 | 35 | 1014.5 |
| 20260904172527 | 33 | 175 | 3.2 | 12.9 | 0.00 | 0.00 | 0.00 | 38 | 1014.7 |
| 20260904171523 | 33 | 165 | 4.8 | 12.9 | 0.00 | 0.00 | 0.00 | 40 | 1014.8 |
| 20260904170518 | 32 | 154 | 1.6 | 11.3 | 0.00 | 0.00 | 0.00 | 41 | 1014.9 |
| 20260904165528 | 33 | 154 | 4.8 | 14.5 | 0.00 | 0.00 | 0.00 | 40 | 1015.0 |
| 20260904164524 | 32 | 148 | 4.8 | 17.7 | 0.00 | 0.00 | 0.00 | 41 | 1015.0 |
| 20260904163519 | 32 | 137 | 4.8 | 11.3 | 0.00 | 0.00 | 0.00 | 42 | 1015.1 |
| 20260904162515 | 31 | 146 | 4.8 | 16.1 | 0.00 | 0.00 | 0.00 | 44 | 1014.9 |
| 20260904161526 | 31 | 143 | 4.8 | 12.9 | 0.00 | 0.00 | 0.00 | 46 | 1014.9 |
| 20260904160541 | 31 | 166 | 6.4 | 16.1 | 0.00 | 0.00 | 0.00 | 47 | 1014.9 |
| 20260904155517 | 30 | 165 | 4.8 | 12.9 | 0.00 | 0.00 | 0.00 | 49 | 1015.1 |
| 20260904154528 | 30 | 177 | 4.8 | 11.3 | 0.00 | 0.00 | 0.00 | 52 | 1014.9 |
| 20260904153524 | 28 | 139 | 8.0 | 20.9 | 0.00 | 0.00 | 0.00 | 56 | 1015.0 |
| 20260904152559 | 28 | 173 | 6.4 | 14.5 | 0.00 | 0.00 | 0.00 | 57 | 1015.0 |
| 20260904151515 | 28 | 137 | 4.8 | 16.1 | 0.00 | 0.00 | 0.00 | 59 | 1014.9 |
| 20260904150526 | 27 | 156 | 6.4 | 20.9 | 0.00 | 0.00 | 0.00 | 60 | 1015.0 |
| 20260904145522 | 27 | 162 | 4.8 | 12.9 | 0.00 | 0.00 | 0.00 | 62 | 1015.0 |
| 20260904144518 | 27 | 144 | 4.8 | 9.7 | 0.00 | 0.00 | 0.00 | 62 | 1015.0 |
| 20260904143528 | 26 | 159 | 4.8 | 12.9 | 0.00 | 0.00 | 0.00 | 64 | 1014.9 |
| 20260904142544 | 26 | 156 | 4.8 | 11.3 | 0.00 | 0.00 | 0.00 | 66 | 1014.9 |
| 20260904141520 | 26 | 149 | 4.8 | 14.5 | 0.00 | 0.00 | 0.00 | 67 | 1015.0 |
| 20260904140515 | 26 | 163 | 4.8 | 14.5 | 0.00 | 0.00 | 0.00 | 67 | 1015.0 |
| 20260904135526 | 25 | 140 | 3.2 | 11.3 | 0.00 | 0.00 | 0.00 | 70 | 1014.9 |
| 20260904134522 | 25 | 161 | 3.2 | 11.3 | 0.00 | 0.00 | 0.00 | 71 | 1014.9 |
| 20260904133518 | 23 | 158 | 3.2 | 9.7 | 0.00 | 0.00 | 0.00 | 74 | 1014.6 |
| 20260904132529 | 23 | 128 | 6.4 | 12.9 | 0.00 | 0.00 | 0.00 | 75 | 1014.7 |
| 20260904131544 | 22 | 124 | 6.4 | 12.9 | 0.00 | 0.00 | 0.00 | 76 | 1014.5 |
| 20260904130540 | 22 | 95 | 3.2 | 6.4 | 0.00 | 0.00 | 0.00 | 78 | 1014.5 |
| 20260904125516 | 22 | 154 | 3.2 | 9.7 | 0.00 | 0.00 | 0.00 | 78 | 1014.3 |